Location: Bullenkuhlen
(53.7689°N, 9.7495°E)
Time: 02:06:50
(UTC+00:00)

Cosmos 773 Rocket - Pass Details

Date: 09 April 2020
Orbit: 745 x 777 km, 74.1° (Epoch: 03 June)

Event Time Altitude Azimuth Distance (km) Brightness Sun altitude
Rises 22:05:52 0° 334° (NNW) 3,218 8.6 -26.1°
Reaches altitude 10° 22:08:16 10° 338° (NNW) 2,294 7.5 -26.3°
Maximum altitude 22:13:25 59° 59° (ENE) 881 4.2 -26.5°
Enters shadow 22:13:38 58° 70° (ENE) 886 4.2 -26.5°
